Hot Springs, VA

7:27 AM EST on December 13, 2017 (GMT -0500)
Ingalls

Weather History for KHSP - January, 2001

Change the Weather History Date:

Thursday, January 11, 2001

  Actual Average Record
Temperature  
Mean Temperature 34 °F -  
Max Temperature 42 °F 33 °F 51 °F (2006)
Min Temperature 26 °F 19 °F -4 °F (1997)
Degree Days  
Heating Degree Days 31    
Moisture  
Dew Point 6 °F    
Average Humidity 31    
Maximum Humidity 43    
Minimum Humidity 24    
Precipitation  
Precipitation 0.00 in - - ()
Sea Level Pressure  
Sea Level Pressure 30.10 in    
Wind  
Wind Speed 16 mph (WNW)    
Max Wind Speed 20 mph    
Max Gust Speed 26 mph    
Visibility 10 miles    
Events      
Averages and records for this station are not official NWS values.
T = Trace of Precipitation, MM = Missing Value Source: NWS Daily Summary

Daily Weather History Graph

Daily Weather History Graph

Search for Another Location

Airport or City:

Trip Planner

Search our weather history database for the weather conditions in past years. The results will help you decide how hot, cold, wet, or windy it might be!

Date:

Astronomy

Jan. 11, 2001 Rise Set
Actual Time 7:35 AM EST 5:20 PM EST
Civil Twilight 7:06 AM EST 5:48 PM EST
Nautical Twilight 6:33 AM EST 6:21 PM EST
Astronomical Twilight 6:01 AM EST 6:53 PM EST
Moon 7:43 PM EST (1/11) 9:11 AM EST (1/11)
Length of Visible Light 10h 42m
Length of Day
9h 44m
Waning Gibbous, 95% of the Moon is Illuminated
Jan 11
Waning Gibbous
Jan 16
Last Quarter
Jan 24
New
Feb 1
First Quarter
Feb 8
Full

Hourly Weather History & Observations

Time (EST) Temp. Windchill Dew Point Humidity Pressure Visibility Wind Dir Wind Speed Gust Speed Precip Events Conditions
12:00 AM 28.4 °F 16.2 °F 6.8 °F 40% 30.13 in 10.0 mi West 17.3 mph - N/A   Clear
12:20 AM 28.4 °F 17.0 °F 6.8 °F 40% 30.12 in 10.0 mi West 15.0 mph - N/A   Clear
12:40 AM 28.4 °F 16.2 °F 6.8 °F 40% 30.12 in 10.0 mi West 17.3 mph - N/A   Clear
1:00 AM 28.4 °F 16.2 °F 6.8 °F 40% 30.12 in 10.0 mi West 17.3 mph 21.9 mph N/A   Clear
1:20 AM 26.6 °F 14.3 °F 6.8 °F 43% 30.12 in 10.0 mi West 16.1 mph - N/A   Clear
1:40 AM 26.6 °F 14.3 °F 6.8 °F 43% 30.12 in 10.0 mi West 16.1 mph - N/A   Clear
2:00 AM 28.4 °F 16.2 °F 6.8 °F 40% 30.13 in 10.0 mi WNW 17.3 mph - N/A   Clear
2:20 AM 28.4 °F 16.2 °F 6.8 °F 40% 30.13 in 10.0 mi West 17.3 mph - N/A   Clear
2:41 AM 28.4 °F 16.2 °F 5.0 °F 37% 30.13 in 10.0 mi WNW 17.3 mph - N/A   Clear
3:00 AM 28.4 °F 15.8 °F 3.2 °F 34% 30.13 in 10.0 mi West 18.4 mph - N/A   Clear
3:20 AM 28.4 °F 15.4 °F 3.2 °F 34% 30.13 in 10.0 mi WNW 19.6 mph - N/A   Clear
3:40 AM 28.4 °F 15.8 °F 3.2 °F 34% 30.13 in 10.0 mi West 18.4 mph - N/A   Clear
4:00 AM 28.4 °F 16.2 °F 3.2 °F 34% 30.12 in 10.0 mi West 17.3 mph - N/A   Clear
4:20 AM 30.2 °F 18.1 °F 3.2 °F 32% 30.11 in 10.0 mi West 18.4 mph - N/A   Clear
4:40 AM 30.2 °F 18.1 °F 3.2 °F 32% 30.11 in 10.0 mi West 18.4 mph - N/A   Clear
5:00 AM 30.2 °F 18.9 °F 1.4 °F 29% 30.10 in 10.0 mi West 16.1 mph - N/A   Clear
5:20 AM 30.2 °F 17.8 °F 1.4 °F 29% 30.10 in 10.0 mi West 19.6 mph - N/A   Clear
5:40 AM 30.2 °F 18.1 °F 1.4 °F 29% 30.10 in 10.0 mi West 18.4 mph - N/A   Clear
6:00 AM 30.2 °F 17.8 °F 1.4 °F 29% 30.11 in 10.0 mi West 19.6 mph - N/A   Clear
6:20 AM 32.0 °F 20.1 °F 1.4 °F 27% 30.11 in 10.0 mi West 19.6 mph - N/A   Clear
6:40 AM 32.0 °F 20.1 °F 1.4 °F 27% 30.11 in 10.0 mi West 19.6 mph 26.5 mph N/A   Clear
7:00 AM 32.0 °F 20.5 °F 1.4 °F 27% 30.11 in 10.0 mi West 18.4 mph 25.3 mph N/A   Clear
7:20 AM 32.0 °F 20.1 °F 1.4 °F 27% 30.12 in 10.0 mi West 19.6 mph - N/A   Clear
7:40 AM 32.0 °F 20.1 °F 1.4 °F 27% 30.12 in 10.0 mi West 19.6 mph - N/A   Clear
8:00 AM 32.0 °F 20.5 °F 1.4 °F 27% 30.12 in 10.0 mi West 18.4 mph - N/A   Clear
8:20 AM 32.0 °F 20.8 °F 1.4 °F 27% 30.12 in 10.0 mi WNW 17.3 mph 23.0 mph N/A   Clear
8:41 AM 30.2 °F 18.9 °F 1.4 °F 29% 30.12 in 10.0 mi WNW 16.1 mph - N/A   Clear
9:00 AM 30.2 °F 19.8 °F 1.4 °F 29% 30.12 in 10.0 mi WNW 13.8 mph - N/A   Clear
9:40 AM 33.8 °F 23.2 °F 3.2 °F 28% 30.12 in 10.0 mi WNW 17.3 mph - N/A   Clear
10:00 AM 33.8 °F 23.9 °F 3.2 °F 28% 30.12 in 10.0 mi WNW 15.0 mph - N/A   Clear
10:20 AM 35.6 °F 26.2 °F 3.2 °F 26% 30.12 in 10.0 mi WNW 15.0 mph - N/A   Clear
10:40 AM 35.6 °F 26.6 °F 3.2 °F 26% 30.12 in 10.0 mi WNW 13.8 mph - N/A   Clear
11:00 AM 37.4 °F 28.5 °F 3.2 °F 24% 30.12 in 10.0 mi WNW 15.0 mph - N/A   Clear
11:20 AM 37.4 °F 28.5 °F 5.0 °F 26% 30.12 in 10.0 mi WNW 15.0 mph - N/A   Clear
11:40 AM 37.4 °F 28.5 °F 6.8 °F 28% 30.12 in 10.0 mi WNW 15.0 mph - N/A   Clear
12:00 PM 37.4 °F 28.5 °F 6.8 °F 28% 30.11 in 10.0 mi WNW 15.0 mph - N/A   Clear
12:20 PM 39.2 °F 30.8 °F 8.6 °F 28% 30.11 in 10.0 mi West 15.0 mph - N/A   Clear
12:42 PM 39.2 °F 31.6 °F 8.6 °F 28% 30.10 in 10.0 mi West 12.7 mph 18.4 mph N/A   Clear
1:00 PM 41.0 °F 33.9 °F 10.4 °F 29% 30.09 in 10.0 mi West 12.7 mph - N/A   Clear
1:20 PM 42.8 °F 36.2 °F 10.4 °F 27% 30.09 in 10.0 mi WNW 12.7 mph - N/A   Clear
1:40 PM 42.8 °F 35.4 °F 10.4 °F 27% 30.09 in 10.0 mi West 15.0 mph - N/A   Clear
2:00 PM 42.8 °F 35.8 °F 12.2 °F 29% 30.07 in 10.0 mi WNW 13.8 mph - N/A   Clear
2:20 PM 42.8 °F 35.4 °F 10.4 °F 27% 30.07 in 10.0 mi WNW 15.0 mph - N/A   Clear
2:40 PM 42.8 °F 35.8 °F 10.4 °F 27% 30.07 in 10.0 mi West 13.8 mph - N/A   Clear
3:00 PM 42.8 °F 35.4 °F 10.4 °F 27% 30.07 in 10.0 mi WNW 15.0 mph - N/A   Clear
3:20 PM 42.8 °F 36.2 °F 10.4 °F 27% 30.06 in 10.0 mi WNW 12.7 mph - N/A   Clear
3:40 PM 42.8 °F 36.2 °F 10.4 °F 27% 30.06 in 10.0 mi West 12.7 mph - N/A   Clear
4:00 PM 39.2 °F 32.0 °F 10.4 °F 31% 30.06 in 10.0 mi West 11.5 mph - N/A   Clear
4:20 PM 39.2 °F 32.5 °F 10.4 °F 31% 30.06 in 10.0 mi West 10.4 mph - N/A   Clear
4:40 PM 39.2 °F 33.0 °F 10.4 °F 31% 30.06 in 10.0 mi WNW 9.2 mph - N/A   Clear
5:00 PM 37.4 °F 28.5 °F 12.2 °F 36% 30.07 in 10.0 mi West 15.0 mph - N/A   Clear
5:20 PM 37.4 °F 28.9 °F 10.4 °F 33% 30.06 in 10.0 mi WNW 13.8 mph - N/A   Clear
5:40 PM 37.4 °F 28.9 °F 10.4 °F 33% 30.06 in 10.0 mi WNW 13.8 mph - N/A   Clear
6:00 PM 37.4 °F 28.9 °F 10.4 °F 33% 30.07 in 10.0 mi WNW 13.8 mph - N/A   Clear
6:20 PM 37.4 °F 28.9 °F 10.4 °F 33% 30.06 in 10.0 mi WNW 13.8 mph - N/A   Clear
6:40 PM 37.4 °F 29.3 °F 10.4 °F 33% 30.07 in 10.0 mi WNW 12.7 mph - N/A   Clear
7:00 PM 37.4 °F 30.8 °F 10.4 °F 33% 30.07 in 10.0 mi West 9.2 mph - N/A   Clear
7:20 PM 37.4 °F 32.1 °F 10.4 °F 33% 30.07 in 10.0 mi West 6.9 mph - N/A   Clear
7:40 PM 35.6 °F 29.9 °F 10.4 °F 35% 30.07 in 10.0 mi West 6.9 mph - N/A   Clear
8:02 PM 35.6 °F 30.7 °F 10.4 °F 35% 30.07 in 10.0 mi West 5.8 mph - N/A   Clear
8:22 PM 37.4 °F 29.8 °F 10.4 °F 33% 30.07 in 10.0 mi West 11.5 mph - N/A   Clear
8:40 PM 37.4 °F 30.3 °F 10.4 °F 33% 30.07 in 10.0 mi West 10.4 mph - N/A   Clear
9:00 PM 37.4 °F 30.3 °F 8.6 °F 30% 30.06 in 10.0 mi West 10.4 mph - N/A   Clear
9:20 PM 37.4 °F 30.3 °F 8.6 °F 30% 30.06 in 10.0 mi WNW 10.4 mph - N/A   Scattered Clouds
9:40 PM 37.4 °F 30.3 °F 6.8 °F 28% 30.06 in 10.0 mi WNW 10.4 mph - N/A   Mostly Cloudy
10:00 PM 37.4 °F 30.3 °F 6.8 °F 28% 30.06 in 10.0 mi WNW 10.4 mph - N/A   Scattered Clouds
10:20 PM 37.4 °F 32.8 °F 6.8 °F 28% 30.05 in 10.0 mi West 5.8 mph - N/A   Mostly Cloudy
10:40 PM 37.4 °F 32.1 °F 6.8 °F 28% 30.05 in 10.0 mi West 6.9 mph - N/A   Overcast
11:00 PM 37.4 °F 30.8 °F 10.4 °F 33% 30.05 in 10.0 mi WNW 9.2 mph - N/A   Overcast
11:20 PM 35.6 °F 28.6 °F 6.8 °F 30% 30.05 in 10.0 mi WNW 9.2 mph - N/A   Overcast
11:40 PM 37.4 °F 32.1 °F 6.8 °F 28% 30.04 in 10.0 mi NW 6.9 mph - N/A   Mostly Cloudy